Time,TemperatureF,DewpointF,PressureIn,WindDirection,WindDirectionDegrees,WindSpeedMPH,WindSpeedGustMPH,Humidity,HourlyPrecipIn,Conditions,Clouds,dailyrainin,SolarRadiationWatts/m^2,SoftwareType,DateUTC
2013-02-07 00:00:00,18.0,14.0,30.24,East,80,0.0,0.0,84,0.00,,CLR,0.00,0.00,VWS V14.01,2013-02-07 05:00:00,
2013-02-07 00:01:00,18.0,14.0,30.24,East,80,0.0,0.0,84,0.00,,CLR,0.00,0.00,VWS V14.01,2013-02-07 05:01:00,
2013-02-07 00:06:00,17.8,13.8,30.24,East,79,0.0,0.0,84,0.00,,BKN200,0.00,0.00,VWS V14.01,2013-02-07 05:06:00,
2013-02-07 00:11:00,17.7,13.7,30.24,East,80,0.0,0.0,84,0.00,,BKN200,0.00,0.00,VWS V14.01,2013-02-07 05:11:00,
2013-02-07 00:16:00,17.8,13.8,30.23,East,86,0.0,0.0,84,0.00,,BKN200,0.00,0.00,VWS V14.01,2013-02-07 05:16:00,
2013-02-07 00:21:00,18.1,14.4,30.23,South,172,0.0,0.0,85,0.00,,BKN200,0.00,0.00,VWS V14.01,2013-02-07 05:21:00,
2013-02-07 00:26:00,18.4,14.4,30.23,South,172,0.0,0.0,84,0.00,,BKN200,0.00,0.00,VWS V14.01,2013-02-07 05:26:00,
2013-02-07 00:31:00,18.9,14.9,30.24,South,171,0.0,0.0,84,0.00,,BKN200,0.00,0.00,VWS V14.01,2013-02-07 05:31:00,
2013-02-07 00:36:00,19.2,15.2,30.24,South,171,0.0,0.0,84,0.00,,BKN200,0.00,0.00,VWS V14.01,2013-02-07 05:36:00,
2013-02-07 00:41:00,19.2,14.9,30.24,South,171,0.0,0.0,83,0.00,,BKN200,0.00,0.00,VWS V14.01,2013-02-07 05:41:00,
2013-02-07 00:46:00,19.4,15.1,30.25,South,171,0.0,0.0,83,0.00,,BKN200,0.00,0.00,VWS V14.01,2013-02-07 05:46:00,
2013-02-07 00:51:00,19.4,15.1,30.25,South,171,0.0,0.0,83,0.00,,BKN200,0.00,0.00,VWS V14.01,2013-02-07 05:51:00,
2013-02-07 00:56:00,19.4,15.1,30.25,South,171,0.0,0.0,83,0.00,,BKN200,0.00,0.00,VWS V14.01,2013-02-07 05:56:00,
2013-02-07 01:01:00,19.4,15.1,30.24,South,171,0.0,0.0,83,0.00,,BKN200,0.00,0.00,VWS V14.01,2013-02-07 06:01:00,
2013-02-07 01:05:00,19.4,15.1,30.24,South,171,0.0,0.0,83,0.00,,BKN200,0.00,0.00,VWS V14.01,2013-02-07 06:05:00,
2013-02-07 01:10:00,19.4,14.8,30.24,South,171,0.0,0.0,82,0.00,,BKN200,0.00,0.00,VWS V14.01,2013-02-07 06:10:00,
2013-02-07 01:15:00,19.4,15.1,30.25,South,171,0.0,0.0,83,0.00,,BKN200,0.00,0.00,VWS V14.01,2013-02-07 06:15:00,
2013-02-07 01:20:00,19.5,15.2,30.25,South,171,0.0,0.0,83,0.00,,BKN200,0.00,0.00,VWS V14.01,2013-02-07 06:20:00,
2013-02-07 01:25:00,19.5,15.2,30.25,South,171,0.0,0.0,83,0.00,,BKN200,0.00,0.00,VWS V14.01,2013-02-07 06:25:00,
2013-02-07 01:30:00,19.5,15.2,30.26,South,171,0.0,0.0,83,0.00,,BKN200,0.00,0.00,VWS V14.01,2013-02-07 06:30:00,
2013-02-07 01:35:00,19.7,15.4,30.26,South,171,0.0,0.0,83,0.00,,BKN200,0.00,0.00,VWS V14.01,2013-02-07 06:35:00,
2013-02-07 01:40:00,19.9,15.6,30.26,South,171,0.0,0.0,83,0.00,,BKN200,0.00,0.00,VWS V14.01,2013-02-07 06:40:00,
2013-02-07 01:45:00,19.9,15.6,30.26,South,171,0.0,0.0,83,0.00,,BKN200,0.00,0.00,VWS V14.01,2013-02-07 06:45:00,
2013-02-07 01:50:00,19.9,15.6,30.26,South,171,0.0,0.0,83,0.00,,BKN200,0.00,0.00,VWS V14.01,2013-02-07 06:50:00,
2013-02-07 01:56:00,20.0,15.7,30.26,South,171,0.0,0.0,83,0.00,,BKN200,0.00,0.00,VWS V14.01,2013-02-07 06:56:00,
2013-02-07 02:01:00,20.2,15.9,30.26,South,171,0.0,0.0,83,0.00,,BKN200,0.00,0.00,VWS V14.01,2013-02-07 07:01:00,
2013-02-07 02:06:00,20.3,16.0,30.26,South,171,0.0,0.0,83,0.00,,BKN200,0.00,0.00,VWS V14.01,2013-02-07 07:06:00,
2013-02-07 02:11:00,20.5,16.2,30.26,South,171,0.0,0.0,83,0.00,,BKN200,0.00,0.00,VWS V14.01,2013-02-07 07:11:00,
2013-02-07 02:17:00,20.5,16.2,30.27,South,171,0.0,0.0,83,0.00,,BKN200,0.00,0.00,VWS V14.01,2013-02-07 07:17:00,
2013-02-07 02:22:00,20.8,16.7,30.27,South,171,0.0,0.0,84,0.00,,BKN200,0.00,0.00,VWS V14.01,2013-02-07 07:22:00,
2013-02-07 02:27:00,21.1,17.0,30.27,South,171,0.0,0.0,84,0.00,,BKN200,0.00,0.00,VWS V14.01,2013-02-07 07:27:00,
2013-02-07 02:32:00,21.3,17.0,30.26,South,171,0.0,0.0,83,0.00,,BKN200,0.00,0.00,VWS V14.01,2013-02-07 07:32:00,
2013-02-07 02:37:00,21.6,17.0,30.26,South,171,0.0,0.0,82,0.00,,BKN200,0.00,0.00,VWS V14.01,2013-02-07 07:37:00,
2013-02-07 02:42:00,21.8,17.2,30.26,South,171,0.0,0.0,82,0.00,,BKN200,0.00,0.00,VWS V14.01,2013-02-07 07:42:00,
2013-02-07 02:47:00,21.9,17.0,30.26,South,171,0.0,0.0,81,0.00,,BKN200,0.00,0.00,VWS V14.01,2013-02-07 07:47:00,
2013-02-07 02:52:00,22.1,17.2,30.26,South,171,0.0,0.0,81,0.00,,BKN200,0.00,0.00,VWS V14.01,2013-02-07 07:52:00,
2013-02-07 02:57:00,22.2,17.0,30.26,South,171,0.0,0.0,80,0.00,,BKN200,0.00,0.00,VWS V14.01,2013-02-07 07:57:00,
2013-02-07 03:02:00,22.4,17.2,30.26,South,171,0.0,0.0,80,0.00,,OVC200,0.00,0.00,VWS V14.01,2013-02-07 08:02:00,
2013-02-07 03:07:00,22.5,17.0,30.26,South,171,0.0,0.0,79,0.00,,OVC200,0.00,0.00,VWS V14.01,2013-02-07 08:07:00,
2013-02-07 03:12:00,22.7,16.9,30.26,South,171,0.0,0.0,78,0.00,,OVC200,0.00,0.00,VWS V14.01,2013-02-07 08:12:00,
2013-02-07 03:17:00,22.9,17.1,30.25,South,171,0.0,0.0,78,0.00,,OVC200,0.00,0.00,VWS V14.01,2013-02-07 08:17:00,
2013-02-07 03:22:00,23.0,17.2,30.25,South,171,0.0,0.0,78,0.00,,OVC200,0.00,0.00,VWS V14.01,2013-02-07 08:22:00,
2013-02-07 03:27:00,23.3,17.5,30.25,South,171,0.0,0.0,78,0.00,,OVC200,0.00,0.00,VWS V14.01,2013-02-07 08:27:00,
2013-02-07 03:32:00,23.5,17.4,30.24,South,171,0.0,0.0,77,0.00,,OVC200,0.00,0.00,VWS V14.01,2013-02-07 08:32:00,
2013-02-07 03:37:00,23.6,17.5,30.24,South,171,0.0,0.0,77,0.00,,OVC200,0.00,0.00,VWS V14.01,2013-02-07 08:37:00,
2013-02-07 03:42:00,23.8,17.7,30.24,South,171,0.0,0.0,77,0.00,,OVC200,0.00,0.00,VWS V14.01,2013-02-07 08:42:00,
2013-02-07 03:47:00,23.8,17.7,30.24,South,171,0.0,0.0,77,0.00,,OVC200,0.00,0.00,VWS V14.01,2013-02-07 08:47:00,
2013-02-07 03:52:00,23.9,17.5,30.24,South,171,0.0,0.0,76,0.00,,OVC200,0.00,0.00,VWS V14.01,2013-02-07 08:52:00,
2013-02-07 03:57:00,24.1,17.6,30.24,South,171,0.0,0.0,76,0.00,,OVC200,0.00,0.00,VWS V14.01,2013-02-07 08:57:00,
2013-02-07 04:02:00,24.1,17.6,30.25,South,171,0.0,0.0,76,0.00,,OVC150,0.00,0.00,VWS V14.01,2013-02-07 09:02:00,
2013-02-07 04:07:00,24.1,17.6,30.25,South,171,0.0,0.0,76,0.00,,OVC150,0.00,0.00,VWS V14.01,2013-02-07 09:07:00,
2013-02-07 04:12:00,24.1,18.0,30.25,South,171,0.0,0.0,77,0.00,,OVC150,0.00,0.00,VWS V14.01,2013-02-07 09:12:00,
2013-02-07 04:17:00,24.1,18.0,30.25,South,171,0.0,0.0,77,0.00,,OVC150,0.00,0.00,VWS V14.01,2013-02-07 09:17:00,
2013-02-07 04:22:00,24.1,17.6,30.25,South,171,0.0,0.0,76,0.00,,OVC150,0.00,0.00,VWS V14.01,2013-02-07 09:22:00,
2013-02-07 04:27:00,24.1,17.6,30.25,South,171,0.0,0.0,76,0.00,,OVC150,0.00,0.00,VWS V14.01,2013-02-07 09:27:00,
2013-02-07 04:32:00,24.2,17.4,30.25,South,171,0.0,0.0,75,0.00,,OVC150,0.00,0.00,VWS V14.01,2013-02-07 09:32:00,
2013-02-07 04:37:00,24.4,17.6,30.25,South,171,0.0,0.0,75,0.00,,OVC150,0.00,0.00,VWS V14.01,2013-02-07 09:37:00,
2013-02-07 04:42:00,24.5,17.4,30.25,South,171,0.0,0.0,74,0.00,,OVC150,0.00,0.00,VWS V14.01,2013-02-07 09:42:00,
2013-02-07 04:47:00,24.7,17.6,30.24,South,171,0.0,0.0,74,0.00,,OVC150,0.00,0.00,VWS V14.01,2013-02-07 09:47:00,
2013-02-07 04:52:00,24.8,17.7,30.24,South,169,0.0,0.0,74,0.00,,OVC150,0.00,0.00,VWS V14.01,2013-02-07 09:52:00,
2013-02-07 04:57:00,25.0,17.9,30.24,South,169,0.0,0.0,74,0.00,,OVC150,0.00,0.00,VWS V14.01,2013-02-07 09:57:00,
2013-02-07 05:02:00,25.0,17.6,30.24,East,93,0.0,0.0,73,0.00,,OVC150,0.00,0.00,VWS V14.01,2013-02-07 10:02:00,
2013-02-07 05:07:00,25.1,17.7,30.24,East,93,0.0,0.0,73,0.00,,OVC150,0.00,0.00,VWS V14.01,2013-02-07 10:07:00,
2013-02-07 05:12:00,25.3,18.2,30.24,East,93,0.0,0.0,74,0.00,,OVC150,0.00,0.00,VWS V14.01,2013-02-07 10:12:00,
2013-02-07 05:17:00,25.3,18.2,30.24,East,93,0.0,0.0,74,0.00,,OVC150,0.00,0.00,VWS V14.01,2013-02-07 10:17:00,
2013-02-07 05:22:00,25.4,18.0,30.24,East,97,0.0,0.0,73,0.00,,OVC150,0.00,0.00,VWS V14.01,2013-02-07 10:22:00,
2013-02-07 05:27:00,25.6,17.8,30.24,East,99,0.0,0.0,72,0.00,,OVC150,0.00,0.00,VWS V14.01,2013-02-07 10:27:00,
2013-02-07 05:32:00,25.6,17.8,30.24,East,99,0.0,0.0,72,0.00,,OVC150,0.00,0.00,VWS V14.01,2013-02-07 10:32:00,
2013-02-07 05:37:00,25.7,17.9,30.24,ESE,119,0.0,1.0,72,0.00,,OVC150,0.00,0.00,VWS V14.01,2013-02-07 10:37:00,
2013-02-07 05:42:00,25.8,17.7,30.24,SE,144,0.0,0.0,71,0.00,,OVC150,0.00,0.00,VWS V14.01,2013-02-07 10:42:00,
2013-02-07 05:47:00,25.8,17.7,30.24,SE,145,0.0,0.0,71,0.00,,OVC150,0.00,0.00,VWS V14.01,2013-02-07 10:47:00,
2013-02-07 05:52:00,26.0,17.9,30.24,SSE,165,0.0,2.0,71,0.00,,OVC150,0.00,0.00,VWS V14.01,2013-02-07 10:52:00,
2013-02-07 05:57:00,26.1,18.0,30.24,SSE,157,0.0,2.0,71,0.00,,OVC150,0.00,0.00,VWS V14.01,2013-02-07 10:57:00,
2013-02-07 06:02:00,26.3,17.9,30.23,SE,140,0.0,0.0,70,0.00,,OVC090,0.00,0.00,VWS V14.01,2013-02-07 11:02:00,
2013-02-07 06:07:00,26.3,17.9,30.23,ESE,116,0.0,0.0,70,0.00,,OVC090,0.00,0.00,VWS V14.01,2013-02-07 11:07:00,
2013-02-07 06:12:00,26.4,17.6,30.23,ESE,117,0.0,0.0,69,0.00,,OVC090,0.00,0.00,VWS V14.01,2013-02-07 11:12:00,
2013-02-07 06:17:00,26.4,17.6,30.24,SE,127,0.0,5.0,69,0.00,,OVC090,0.00,0.00,VWS V14.01,2013-02-07 11:17:00,
2013-02-07 06:22:00,26.6,17.5,30.24,SE,133,0.0,2.0,68,0.00,,OVC090,0.00,0.00,VWS V14.01,2013-02-07 11:22:00,
2013-02-07 06:27:00,26.7,17.6,30.24,SSE,157,0.0,3.0,68,0.00,,OVC090,0.00,0.00,VWS V14.01,2013-02-07 11:27:00,
2013-02-07 06:32:00,26.7,17.9,30.23,SE,145,0.0,0.0,69,0.00,,OVC090,0.00,0.00,VWS V14.01,2013-02-07 11:32:00,
2013-02-07 06:37:00,26.9,18.1,30.23,ESE,120,0.0,0.0,69,0.00,,OVC090,0.00,0.00,VWS V14.01,2013-02-07 11:37:00,
2013-02-07 06:42:00,26.9,17.8,30.23,SE,128,1.0,1.0,68,0.00,,OVC090,0.00,0.00,VWS V14.01,2013-02-07 11:42:00,
2013-02-07 06:47:00,26.9,17.8,30.23,SSE,151,0.0,5.0,68,0.00,,OVC090,0.00,0.00,VWS V14.01,2013-02-07 11:47:00,
2013-02-07 06:52:00,26.9,17.4,30.23,SSE,148,0.0,0.0,67,0.00,,OVC090,0.00,0.00,VWS V14.01,2013-02-07 11:52:00,
2013-02-07 06:57:00,26.7,17.2,30.23,East,88,0.0,2.0,67,0.00,,OVC090,0.00,0.00,VWS V14.01,2013-02-07 11:57:00,
2013-02-07 07:02:00,26.7,17.2,30.23,SE,131,0.0,2.0,67,0.00,,OVC080,0.00,0.00,VWS V14.01,2013-02-07 12:02:00,
2013-02-07 07:07:00,26.7,17.2,30.23,ESE,104,0.0,2.0,67,0.00,,OVC080,0.00,0.00,VWS V14.01,2013-02-07 12:07:00,
2013-02-07 07:12:00,26.7,17.2,30.23,SSE,167,0.0,0.0,67,0.00,,OVC080,0.00,0.00,VWS V14.01,2013-02-07 12:12:00,
2013-02-07 07:17:00,26.7,17.2,30.23,SSE,154,0.0,6.0,67,0.00,,OVC080,0.00,0.00,VWS V14.01,2013-02-07 12:17:00,
2013-02-07 07:22:00,26.7,17.2,30.23,SSE,151,2.0,3.0,67,0.00,,OVC080,0.00,0.00,VWS V14.01,2013-02-07 12:22:00,
2013-02-07 07:27:00,26.7,17.2,30.23,SE,136,0.0,3.0,67,0.00,,OVC080,0.00,0.00,VWS V14.01,2013-02-07 12:27:00,
2013-02-07 07:32:00,26.7,17.6,30.23,East,92,0.0,1.0,68,0.00,,OVC080,0.00,0.00,VWS V14.01,2013-02-07 12:32:00,
2013-02-07 07:37:00,26.7,17.6,30.23,ESE,120,2.0,3.0,68,0.00,,OVC080,0.00,0.00,VWS V14.01,2013-02-07 12:37:00,
2013-02-07 07:42:00,26.9,17.4,30.23,SSE,157,0.0,2.0,67,0.00,,OVC080,0.00,0.00,VWS V14.01,2013-02-07 12:42:00,
2013-02-07 07:47:00,26.9,17.8,30.22,East,89,0.0,2.0,68,0.00,,OVC080,0.00,5.00,VWS V14.01,2013-02-07 12:47:00,
2013-02-07 07:52:00,27.0,17.5,30.22,SSE,150,0.0,1.0,67,0.00,,OVC080,0.00,7.00,VWS V14.01,2013-02-07 12:52:00,
2013-02-07 07:57:00,27.0,17.5,30.22,SSE,152,0.0,3.0,67,0.00,,OVC080,0.00,12.00,VWS V14.01,2013-02-07 12:57:00,
2013-02-07 08:02:00,27.0,17.9,30.24,SE,145,0.0,0.0,68,0.00,,OVC080,0.00,18.00,VWS V14.01,2013-02-07 13:02:00,
2013-02-07 08:07:00,27.2,17.7,30.24,SE,141,0.0,0.0,67,0.00,,OVC080,0.00,21.00,VWS V14.01,2013-02-07 13:07:00,
2013-02-07 08:12:00,27.3,17.8,30.24,SE,145,0.0,2.0,67,0.00,,OVC080,0.00,35.00,VWS V14.01,2013-02-07 13:12:00,
2013-02-07 08:17:00,27.3,18.1,30.24,SE,145,0.0,2.0,68,0.00,,OVC080,0.00,44.00,VWS V14.01,2013-02-07 13:17:00,
2013-02-07 08:22:00,27.5,18.3,30.24,SE,145,0.0,0.0,68,0.00,,OVC080,0.00,53.00,VWS V14.01,2013-02-07 13:22:00,
2013-02-07 08:27:00,27.8,18.6,30.24,SE,145,0.0,0.0,68,0.00,,OVC080,0.00,53.00,VWS V14.01,2013-02-07 13:27:00,
2013-02-07 08:32:00,27.9,18.7,30.24,SE,145,0.0,0.0,68,0.00,,OVC080,0.00,49.00,VWS V14.01,2013-02-07 13:32:00,
2013-02-07 08:37:00,28.1,18.9,30.24,SE,137,0.0,2.0,68,0.00,,OVC080,0.00,60.00,VWS V14.01,2013-02-07 13:37:00,
2013-02-07 08:42:00,28.4,19.2,30.24,SE,127,0.0,0.0,68,0.00,,OVC080,0.00,58.00,VWS V14.01,2013-02-07 13:42:00,
2013-02-07 08:47:00,28.7,19.1,30.22,SSE,147,0.0,4.0,67,0.00,,OVC080,0.00,51.00,VWS V14.01,2013-02-07 13:47:00,
2013-02-07 08:52:00,29.0,19.4,30.22,SE,130,4.0,6.0,67,0.00,,OVC080,0.00,55.00,VWS V14.01,2013-02-07 13:52:00,
2013-02-07 08:57:00,29.1,19.2,30.22,South,169,0.0,6.0,66,0.00,,OVC080,0.00,65.00,VWS V14.01,2013-02-07 13:57:00,
2013-02-07 09:02:00,29.3,19.7,30.22,SE,136,2.0,2.0,67,0.00,,OVC120,0.00,69.00,VWS V14.01,2013-02-07 14:02:00,
2013-02-07 09:07:00,29.4,19.5,30.22,SSE,151,2.0,3.0,66,0.00,,OVC120,0.00,79.00,VWS V14.01,2013-02-07 14:07:00,
2013-02-07 09:12:00,29.5,19.6,30.22,SSE,150,0.0,2.0,66,0.00,,OVC120,0.00,79.00,VWS V14.01,2013-02-07 14:12:00,
2013-02-07 09:17:00,29.8,19.5,30.20,SE,140,2.0,6.0,65,0.00,,OVC120,0.00,91.00,VWS V14.01,2013-02-07 14:17:00,
2013-02-07 09:22:00,30.1,19.8,30.20,SSE,148,2.0,4.0,65,0.00,,OVC120,0.00,127.00,VWS V14.01,2013-02-07 14:22:00,
2013-02-07 09:27:00,30.6,20.2,30.20,SE,131,0.0,6.0,65,0.00,,OVC120,0.00,141.00,VWS V14.01,2013-02-07 14:27:00,
2013-02-07 09:32:00,31.0,20.6,30.20,SE,141,0.0,3.0,65,0.00,,OVC120,0.00,137.00,VWS V14.01,2013-02-07 14:32:00,
2013-02-07 09:37:00,31.5,21.1,30.20,SSE,157,3.0,4.0,65,0.00,,OVC120,0.00,128.00,VWS V14.01,2013-02-07 14:37:00,
2013-02-07 09:42:00,31.8,20.7,30.20,SE,134,1.0,6.0,63,0.00,,OVC120,0.00,127.00,VWS V14.01,2013-02-07 14:42:00,
2013-02-07 09:47:00,31.9,20.8,30.19,SSE,152,0.0,7.0,63,0.00,,OVC120,0.00,123.00,VWS V14.01,2013-02-07 14:47:00,
2013-02-07 09:52:00,32.1,21.3,30.19,ESE,114,0.0,3.0,64,0.00,,OVC120,0.00,111.00,VWS V14.01,2013-02-07 14:52:00,
2013-02-07 09:57:00,32.1,21.3,30.19,SSE,147,5.0,5.0,64,0.00,,OVC120,0.00,132.00,VWS V14.01,2013-02-07 14:57:00,
2013-02-07 10:02:00,32.2,21.4,30.18,SE,133,0.0,0.0,64,0.00,,OVC140,0.00,123.00,VWS V14.01,2013-02-07 15:02:00,
2013-02-07 10:07:00,32.5,21.7,30.18,SSE,155,1.0,6.0,64,0.00,,OVC140,0.00,86.00,VWS V14.01,2013-02-07 15:07:00,
2013-02-07 10:12:00,32.7,21.5,30.18,South,172,0.0,7.0,63,0.00,,OVC140,0.00,74.00,VWS V14.01,2013-02-07 15:12:00,
2013-02-07 10:17:00,32.8,21.2,30.17,SSE,147,2.0,7.0,62,0.00,,OVC140,0.00,107.00,VWS V14.01,2013-02-07 15:17:00,
2013-02-07 10:22:00,32.9,21.7,30.17,SE,130,0.0,2.0,63,0.00,,OVC140,0.00,155.00,VWS V14.01,2013-02-07 15:22:00,
2013-02-07 10:27:00,33.1,21.9,30.17,ESE,123,3.0,5.0,63,0.00,,OVC140,0.00,187.00,VWS V14.01,2013-02-07 15:27:00,
2013-02-07 10:32:00,33.5,22.3,30.17,SE,144,1.0,3.0,63,0.00,,OVC140,0.00,194.00,VWS V14.01,2013-02-07 15:32:00,
2013-02-07 10:37:00,34.0,22.7,30.17,SE,143,0.0,5.0,63,0.00,,OVC140,0.00,310.00,VWS V14.01,2013-02-07 15:37:00,
2013-02-07 10:42:00,34.6,22.9,30.17,South,179,0.0,6.0,62,0.00,,OVC140,0.00,208.00,VWS V14.01,2013-02-07 15:42:00,
2013-02-07 10:47:00,35.2,22.7,30.17,SE,137,3.0,10.0,60,0.00,,OVC140,0.00,252.00,VWS V14.01,2013-02-07 15:47:00,
2013-02-07 10:52:00,35.8,22.9,30.17,SSE,154,2.0,7.0,59,0.00,,OVC140,0.00,208.00,VWS V14.01,2013-02-07 15:52:00,
2013-02-07 10:57:00,36.3,23.4,30.17,SE,136,0.0,7.0,59,0.00,,OVC140,0.00,222.00,VWS V14.01,2013-02-07 15:57:00,
2013-02-07 11:02:00,37.0,24.4,30.16,SSW,209,0.0,3.0,60,0.00,,OVC250,0.00,250.00,VWS V14.01,2013-02-07 16:02:00,
2013-02-07 11:07:00,37.8,24.4,30.16,SE,140,3.0,9.0,58,0.00,,OVC250,0.00,253.00,VWS V14.01,2013-02-07 16:07:00,
2013-02-07 11:12:00,38.3,24.4,30.16,SSE,154,0.0,5.0,57,0.00,,OVC250,0.00,208.00,VWS V14.01,2013-02-07 16:12:00,
2013-02-07 11:17:00,38.8,24.0,30.16,SE,141,5.0,11.0,55,0.00,,OVC250,0.00,169.00,VWS V14.01,2013-02-07 16:17:00,
2013-02-07 11:22:00,38.9,24.1,30.16,SE,136,2.0,5.0,55,0.00,,OVC250,0.00,146.00,VWS V14.01,2013-02-07 16:22:00,
2013-02-07 11:27:00,39.2,24.4,30.16,SSE,155,3.0,7.0,55,0.00,,OVC250,0.00,113.00,VWS V14.01,2013-02-07 16:27:00,
2013-02-07 11:32:00,39.2,24.4,30.15,ESE,106,5.0,7.0,55,0.00,,OVC250,0.00,84.00,VWS V14.01,2013-02-07 16:32:00,
2013-02-07 11:37:00,39.1,24.7,30.15,SE,131,4.0,8.0,56,0.00,,OVC250,0.00,130.00,VWS V14.01,2013-02-07 16:37:00,
2013-02-07 11:42:00,39.2,24.8,30.15,South,175,1.0,2.0,56,0.00,,OVC250,0.00,160.00,VWS V14.01,2013-02-07 16:42:00,
2013-02-07 11:47:00,39.3,24.5,30.14,SSE,154,0.0,9.0,55,0.00,,OVC250,0.00,141.00,VWS V14.01,2013-02-07 16:47:00,
2013-02-07 11:52:00,39.6,24.8,30.14,SE,128,1.0,6.0,55,0.00,,OVC250,0.00,121.00,VWS V14.01,2013-02-07 16:52:00,
2013-02-07 11:57:00,40.1,25.7,30.14,SSE,151,6.0,7.0,56,0.00,,OVC250,0.00,123.00,VWS V14.01,2013-02-07 16:57:00,
2013-02-07 12:02:00,40.3,24.5,30.13,SSE,158,1.0,8.0,53,0.00,,BKN250,0.00,111.00,VWS V14.01,2013-02-07 17:02:00,
2013-02-07 12:07:00,40.6,25.7,30.13,South,191,0.0,8.0,55,0.00,,BKN250,0.00,72.00,VWS V14.01,2013-02-07 17:07:00,
2013-02-07 12:12:00,40.8,25.5,30.13,SSE,168,0.0,6.0,54,0.00,,BKN250,0.00,65.00,VWS V14.01,2013-02-07 17:12:00,
2013-02-07 12:17:00,40.9,25.5,30.11,SSE,155,0.0,7.0,54,0.00,,BKN250,0.00,58.00,VWS V14.01,2013-02-07 17:17:00,
2013-02-07 12:22:00,41.2,25.4,30.11,ESE,121,2.0,7.0,53,0.01,,BKN250,0.01,53.00,VWS V14.01,2013-02-07 17:22:00,
2013-02-07 12:27:00,41.2,24.5,30.11,SSE,167,3.0,7.0,51,0.01,,BKN250,0.01,51.00,VWS V14.01,2013-02-07 17:27:00,
2013-02-07 12:32:00,41.2,24.9,30.10,South,169,2.0,6.0,52,0.01,,BKN250,0.01,58.00,VWS V14.01,2013-02-07 17:32:00,
2013-02-07 12:37:00,41.2,24.9,30.10,SSE,154,1.0,6.0,52,0.01,,BKN250,0.01,97.00,VWS V14.01,2013-02-07 17:37:00,
2013-02-07 12:42:00,41.5,24.7,30.10,SE,143,0.0,6.0,51,0.01,,BKN250,0.01,72.00,VWS V14.01,2013-02-07 17:42:00,
2013-02-07 12:47:00,41.8,25.0,30.09,SSE,161,0.0,8.0,51,0.01,,BKN250,0.01,58.00,VWS V14.01,2013-02-07 17:47:00,
2013-02-07 12:52:00,42.1,24.8,30.09,SSE,162,6.0,10.0,50,0.01,,BKN250,0.01,285.00,VWS V14.01,2013-02-07 17:52:00,
2013-02-07 12:57:00,42.1,24.8,30.09,SE,145,0.0,10.0,50,0.01,,BKN250,0.01,67.00,VWS V14.01,2013-02-07 17:57:00,
2013-02-07 13:02:00,42.2,24.9,30.08,SE,143,2.0,9.0,50,0.02,,BKN210,0.02,70.00,VWS V14.01,2013-02-07 18:02:00,
2013-02-07 13:07:00,42.3,25.5,30.08,South,171,0.0,9.0,51,0.02,,BKN210,0.02,63.00,VWS V14.01,2013-02-07 18:07:00,
2013-02-07 13:12:00,42.5,26.1,30.08,South,178,0.0,0.0,52,0.02,,BKN210,0.02,60.00,VWS V14.01,2013-02-07 18:12:00,
2013-02-07 13:17:00,42.6,26.2,30.06,SSE,161,1.0,4.0,52,0.02,,BKN210,0.02,62.00,VWS V14.01,2013-02-07 18:17:00,
2013-02-07 13:22:00,42.8,25.9,30.06,SE,141,2.0,5.0,51,0.02,,BKN210,0.02,65.00,VWS V14.01,2013-02-07 18:22:00,
2013-02-07 13:27:00,42.9,26.5,30.06,SE,128,10.0,10.0,52,0.02,,BKN210,0.02,55.00,VWS V14.01,2013-02-07 18:27:00,
2013-02-07 13:32:00,42.9,26.5,30.05,South,186,3.0,3.0,52,0.01,,BKN210,0.02,53.00,VWS V14.01,2013-02-07 18:32:00,
2013-02-07 13:37:00,42.8,26.9,30.05,SSE,152,2.0,10.0,53,0.01,,BKN210,0.02,56.00,VWS V14.01,2013-02-07 18:37:00,
2013-02-07 13:42:00,42.6,26.2,30.05,SSE,151,7.0,7.0,52,0.01,,BKN210,0.02,49.00,VWS V14.01,2013-02-07 18:42:00,
2013-02-07 13:47:00,42.6,26.2,30.05,SSE,167,0.0,7.0,52,0.01,,BKN210,0.02,48.00,VWS V14.01,2013-02-07 18:47:00,
2013-02-07 13:52:00,42.8,26.9,30.05,SSE,147,6.0,10.0,53,0.01,,BKN210,0.02,48.00,VWS V14.01,2013-02-07 18:52:00,
2013-02-07 13:57:00,42.8,25.9,30.05,SSE,165,2.0,10.0,51,0.01,,BKN210,0.02,53.00,VWS V14.01,2013-02-07 18:57:00,
2013-02-07 14:02:00,42.9,27.0,30.04,SSE,147,2.0,2.0,53,0.01,,SCT250,0.02,51.00,VWS V14.01,2013-02-07 19:02:00,
2013-02-07 14:07:00,43.1,25.7,30.04,ESE,123,3.0,7.0,50,0.01,,SCT250,0.02,49.00,VWS V14.01,2013-02-07 19:07:00,
2013-02-07 14:12:00,43.3,26.4,30.04,SSE,155,2.0,3.0,51,0.00,,SCT250,0.02,63.00,VWS V14.01,2013-02-07 19:12:00,
2013-02-07 14:17:00,43.6,26.2,30.03,NE,54,2.0,5.0,50,0.00,,SCT250,0.02,253.00,VWS V14.01,2013-02-07 19:17:00,
2013-02-07 14:22:00,44.2,26.8,30.03,SSE,158,0.0,3.0,50,0.00,,SCT250,0.02,250.00,VWS V14.01,2013-02-07 19:22:00,
2013-02-07 14:27:00,44.6,26.1,30.03,SE,134,0.0,6.0,48,0.00,,SCT250,0.02,236.00,VWS V14.01,2013-02-07 19:27:00,
2013-02-07 14:32:00,45.1,26.6,30.03,South,169,0.0,4.0,48,0.01,,SCT250,0.03,55.00,VWS V14.01,2013-02-07 19:32:00,
2013-02-07 14:37:00,45.2,26.2,30.03,SSE,157,0.0,4.0,47,0.01,,SCT250,0.03,51.00,VWS V14.01,2013-02-07 19:37:00,
2013-02-07 14:42:00,45.5,27.0,30.03,SE,131,7.0,7.0,48,0.01,,SCT250,0.03,49.00,VWS V14.01,2013-02-07 19:42:00,
2013-02-07 14:47:00,45.7,26.6,30.02,ENE,72,0.0,7.0,47,0.01,,SCT250,0.03,46.00,VWS V14.01,2013-02-07 19:47:00,
2013-02-07 14:52:00,45.8,26.7,30.02,SSE,157,0.0,8.0,47,0.01,,SCT250,0.03,46.00,VWS V14.01,2013-02-07 19:52:00,
2013-02-07 14:57:00,46.1,27.0,30.02,SE,141,4.0,8.0,47,0.01,,SCT250,0.03,46.00,VWS V14.01,2013-02-07 19:57:00,
2013-02-07 15:02:00,46.2,27.1,30.01,SSE,162,0.0,2.0,47,0.01,,SCT250,0.03,46.00,VWS V14.01,2013-02-07 20:02:00,
2013-02-07 15:07:00,46.4,26.8,30.01,SSE,168,0.0,7.0,46,0.01,,SCT250,0.03,39.00,VWS V14.01,2013-02-07 20:07:00,
2013-02-07 15:12:00,46.4,27.3,30.01,SSE,151,3.0,3.0,47,0.01,,SCT250,0.03,35.00,VWS V14.01,2013-02-07 20:12:00,
2013-02-07 15:17:00,46.4,26.8,30.00,SSE,152,2.0,7.0,46,0.01,,SCT250,0.03,39.00,VWS V14.01,2013-02-07 20:17:00,
2013-02-07 15:22:00,46.5,27.4,30.00,South,169,2.0,5.0,47,0.01,,SCT250,0.03,37.00,VWS V14.01,2013-02-07 20:22:00,
2013-02-07 15:27:00,46.5,26.9,30.00,SSE,148,0.0,6.0,46,0.01,,SCT250,0.03,35.00,VWS V14.01,2013-02-07 20:27:00,
2013-02-07 15:32:00,46.5,27.4,29.99,SE,141,0.0,3.0,47,0.00,,SCT250,0.03,33.00,VWS V14.01,2013-02-07 20:32:00,
2013-02-07 15:37:00,46.4,27.3,29.99,East,93,0.0,6.0,47,0.00,,SCT250,0.03,35.00,VWS V14.01,2013-02-07 20:37:00,
2013-02-07 15:42:00,46.4,27.3,29.99,SE,141,0.0,1.0,47,0.00,,SCT250,0.03,35.00,VWS V14.01,2013-02-07 20:42:00,
2013-02-07 15:47:00,46.4,26.8,29.99,SE,134,2.0,6.0,46,0.00,,SCT250,0.03,32.00,VWS V14.01,2013-02-07 20:47:00,
2013-02-07 15:52:00,46.2,26.6,29.99,SE,145,1.0,6.0,46,0.00,,SCT250,0.03,33.00,VWS V14.01,2013-02-07 20:52:00,
2013-02-07 15:57:00,46.2,27.6,29.99,SE,126,0.0,6.0,48,0.00,,SCT250,0.03,30.00,VWS V14.01,2013-02-07 20:57:00,
2013-02-07 16:02:00,46.1,27.0,29.99,SE,128,0.0,0.0,47,0.00,,SCT250,0.03,30.00,VWS V14.01,2013-02-07 21:02:00,
2013-02-07 16:07:00,46.0,26.9,29.99,South,181,2.0,6.0,47,0.00,,SCT250,0.03,37.00,VWS V14.01,2013-02-07 21:07:00,
2013-02-07 16:12:00,46.0,27.4,29.99,South,171,0.0,2.0,48,0.00,,SCT250,0.03,30.00,VWS V14.01,2013-02-07 21:12:00,
2013-02-07 16:17:00,45.7,27.1,29.98,SSE,162,0.0,5.0,48,0.00,,SCT250,0.03,28.00,VWS V14.01,2013-02-07 21:17:00,
2013-02-07 16:22:00,45.7,27.1,29.98,SE,127,2.0,7.0,48,0.01,,SCT250,0.04,28.00,VWS V14.01,2013-02-07 21:22:00,
2013-02-07 16:27:00,45.5,26.5,29.98,SSE,155,0.0,7.0,47,0.01,,SCT250,0.04,28.00,VWS V14.01,2013-02-07 21:27:00,
2013-02-07 16:32:00,45.5,27.0,29.97,ESE,116,0.0,0.0,48,0.01,,SCT250,0.04,26.00,VWS V14.01,2013-02-07 21:32:00,
2013-02-07 16:37:00,45.4,26.9,29.97,SE,134,0.0,0.0,48,0.01,,SCT250,0.04,25.00,VWS V14.01,2013-02-07 21:37:00,
2013-02-07 16:42:00,45.2,27.2,29.97,ESE,109,0.0,3.0,49,0.01,,SCT250,0.04,23.00,VWS V14.01,2013-02-07 21:42:00,
2013-02-07 16:47:00,45.1,27.1,29.96,SE,145,0.0,5.0,49,0.01,,SCT250,0.04,25.00,VWS V14.01,2013-02-07 21:47:00,
2013-02-07 16:52:00,44.9,26.9,29.96,SSE,158,0.0,7.0,49,0.01,,SCT250,0.04,25.00,VWS V14.01,2013-02-07 21:52:00,
2013-02-07 16:57:00,44.8,26.8,29.96,SE,136,0.0,7.0,49,0.01,,SCT250,0.04,19.00,VWS V14.01,2013-02-07 21:57:00,
2013-02-07 17:02:00,44.5,27.0,29.95,ESE,119,0.0,0.0,50,0.01,,SCT250,0.04,19.00,VWS V14.01,2013-02-07 22:02:00,
2013-02-07 17:07:00,44.3,27.3,29.95,SE,145,0.0,4.0,51,0.01,,SCT250,0.04,21.00,VWS V14.01,2013-02-07 22:07:00,
2013-02-07 17:12:00,44.2,27.2,29.95,ESE,109,0.0,1.0,51,0.01,,SCT250,0.04,19.00,VWS V14.01,2013-02-07 22:12:00,
2013-02-07 17:17:00,44.1,27.1,29.94,SE,131,0.0,2.0,51,0.01,,SCT250,0.04,19.00,VWS V14.01,2013-02-07 22:17:00,
2013-02-07 17:22:00,43.9,27.0,29.94,ESE,112,0.0,0.0,51,0.01,,SCT250,0.04,19.00,VWS V14.01,2013-02-07 22:22:00,
2013-02-07 17:27:00,43.8,26.9,29.94,ESE,114,0.0,0.0,51,0.01,,SCT250,0.04,14.00,VWS V14.01,2013-02-07 22:27:00,
2013-02-07 17:32:00,43.6,27.1,29.94,East,96,0.0,1.0,52,0.00,,SCT250,0.04,11.00,VWS V14.01,2013-02-07 22:32:00,
2013-02-07 17:37:00,43.5,26.6,29.94,East,85,0.0,2.0,51,0.00,,SCT250,0.04,7.00,VWS V14.01,2013-02-07 22:37:00,
2013-02-07 17:42:00,43.2,26.8,29.94,ESE,117,0.0,0.0,52,0.00,,SCT250,0.04,5.00,VWS V14.01,2013-02-07 22:42:00,
2013-02-07 17:47:00,42.9,27.0,29.94,ESE,120,0.0,1.0,53,0.00,,SCT250,0.04,0.00,VWS V14.01,2013-02-07 22:47:00,
2013-02-07 17:52:00,42.8,26.9,29.94,South,174,0.0,0.0,53,0.00,,SCT250,0.04,0.00,VWS V14.01,2013-02-07 22:52:00,
2013-02-07 17:57:00,42.5,27.0,29.94,SSE,147,0.0,3.0,54,0.00,,SCT250,0.04,0.00,VWS V14.01,2013-02-07 22:57:00,
2013-02-07 18:02:00,42.3,26.9,29.95,East,83,0.0,0.0,54,0.00,,SCT250,0.04,0.00,VWS V14.01,2013-02-07 23:02:00,
2013-02-07 18:07:00,42.2,26.8,29.95,SE,138,0.0,3.0,54,0.00,,SCT250,0.04,0.00,VWS V14.01,2013-02-07 23:07:00,
2013-02-07 18:12:00,42.1,27.1,29.95,SE,137,0.0,0.0,55,0.00,,SCT250,0.04,0.00,VWS V14.01,2013-02-07 23:12:00,
2013-02-07 18:17:00,41.9,26.9,29.94,East,82,0.0,0.0,55,0.00,,SCT250,0.04,0.00,VWS V14.01,2013-02-07 23:17:00,
2013-02-07 18:22:00,41.8,26.8,29.94,East,89,0.0,0.0,55,0.00,,SCT250,0.04,0.00,VWS V14.01,2013-02-07 23:22:00,
2013-02-07 18:27:00,41.5,27.0,29.94,ESE,117,0.0,0.0,56,0.00,,SCT250,0.04,0.00,VWS V14.01,2013-02-07 23:27:00,
2013-02-07 18:32:00,41.3,26.8,29.94,ESE,121,0.0,0.0,56,0.00,,SCT250,0.04,0.00,VWS V14.01,2013-02-07 23:32:00,
2013-02-07 18:37:00,41.1,26.6,29.94,ESE,113,0.0,0.0,56,0.00,,SCT250,0.04,0.00,VWS V14.01,2013-02-07 23:37:00,
2013-02-07 18:42:00,40.9,26.9,29.94,SE,126,0.0,0.0,57,0.00,,SCT250,0.04,0.00,VWS V14.01,2013-02-07 23:42:00,
2013-02-07 18:47:00,40.6,26.6,29.93,SE,126,0.0,0.0,57,0.00,,SCT250,0.04,0.00,VWS V14.01,2013-02-07 23:47:00,
2013-02-07 18:52:00,40.5,26.9,29.93,SE,126,0.0,0.0,58,0.00,,SCT250,0.04,0.00,VWS V14.01,2013-02-07 23:52:00,
2013-02-07 18:57:00,40.2,26.6,29.93,SE,126,0.0,0.0,58,0.00,,SCT250,0.04,0.00,VWS V14.01,2013-02-07 23:57:00,
2013-02-07 19:02:00,39.9,26.8,29.93,SSE,150,1.0,2.0,59,0.00,,BKN250,0.04,0.00,VWS V14.01,2013-02-08 00:02:00,
2013-02-07 19:07:00,39.6,26.5,29.93,SE,126,0.0,2.0,59,0.00,,BKN250,0.04,0.00,VWS V14.01,2013-02-08 00:07:00,
2013-02-07 19:12:00,39.5,26.8,29.93,East,97,0.0,0.0,60,0.00,,BKN250,0.04,0.00,VWS V14.01,2013-02-08 00:12:00,
2013-02-07 19:17:00,39.3,26.6,29.93,SE,126,0.0,2.0,60,0.00,,BKN250,0.04,0.00,VWS V14.01,2013-02-08 00:17:00,
2013-02-07 19:22:00,39.2,26.5,29.93,ESE,102,0.0,0.0,60,0.00,,BKN250,0.04,0.00,VWS V14.01,2013-02-08 00:22:00,
2013-02-07 19:27:00,39.2,26.9,29.93,SE,130,0.0,2.0,61,0.00,,BKN250,0.04,0.00,VWS V14.01,2013-02-08 00:27:00,
2013-02-07 19:32:00,39.2,26.9,29.93,SE,130,0.0,0.0,61,0.00,,BKN250,0.04,0.00,VWS V14.01,2013-02-08 00:32:00,
2013-02-07 19:37:00,39.2,26.9,29.93,ESE,102,0.0,1.0,61,0.00,,BKN250,0.04,0.00,VWS V14.01,2013-02-08 00:37:00,
2013-02-07 19:42:00,39.1,26.8,29.93,South,171,0.0,0.0,61,0.00,,BKN250,0.04,0.00,VWS V14.01,2013-02-08 00:42:00,
2013-02-07 19:47:00,39.1,26.8,29.92,SSE,161,0.0,3.0,61,0.00,,BKN250,0.04,0.00,VWS V14.01,2013-02-08 00:47:00,
2013-02-07 19:52:00,39.1,26.8,29.92,SSE,155,5.0,5.0,61,0.00,,BKN250,0.04,0.00,VWS V14.01,2013-02-08 00:52:00,
2013-02-07 19:57:00,39.2,26.9,29.92,SSE,152,0.0,5.0,61,0.00,,BKN250,0.04,0.00,VWS V14.01,2013-02-08 00:57:00,
2013-02-07 20:02:00,39.2,26.9,29.91,SE,141,0.0,5.0,61,0.00,,SCT250,0.04,0.00,VWS V14.01,2013-02-08 01:02:00,
2013-02-07 20:07:00,39.3,27.0,29.91,SE,133,0.0,6.0,61,0.00,,SCT250,0.04,0.00,VWS V14.01,2013-02-08 01:07:00,
2013-02-07 20:12:00,39.5,27.2,29.91,SSE,162,0.0,1.0,61,0.00,,SCT250,0.04,0.00,VWS V14.01,2013-02-08 01:12:00,
2013-02-07 20:17:00,39.5,27.2,29.90,SSE,150,1.0,3.0,61,0.00,,SCT250,0.04,0.00,VWS V14.01,2013-02-08 01:17:00,
2013-02-07 20:22:00,39.5,27.2,29.90,SSE,155,0.0,5.0,61,0.00,,SCT250,0.04,0.00,VWS V14.01,2013-02-08 01:22:00,
2013-02-07 20:27:00,39.5,27.2,29.90,SE,143,2.0,6.0,61,0.00,,SCT250,0.04,0.00,VWS V14.01,2013-02-08 01:27:00,
2013-02-07 20:32:00,39.5,27.2,29.89,SSE,147,2.0,11.0,61,0.00,,SCT250,0.04,0.00,VWS V14.01,2013-02-08 01:32:00,
2013-02-07 20:37:00,39.6,27.3,29.89,SSE,158,0.0,11.0,61,0.00,,SCT250,0.04,0.00,VWS V14.01,2013-02-08 01:37:00,
2013-02-07 20:42:00,39.6,27.3,29.89,SE,143,2.0,6.0,61,0.00,,SCT250,0.04,0.00,VWS V14.01,2013-02-08 01:42:00,
2013-02-07 20:47:00,39.6,27.3,29.89,SSW,199,1.0,9.0,61,0.00,,SCT250,0.04,0.00,VWS V14.01,2013-02-08 01:47:00,
2013-02-07 20:52:00,39.5,27.2,29.89,SE,143,0.0,0.0,61,0.00,,SCT250,0.04,0.00,VWS V14.01,2013-02-08 01:52:00,
2013-02-07 20:57:00,39.5,27.6,29.89,SSE,148,0.0,5.0,62,0.00,,SCT250,0.04,0.00,VWS V14.01,2013-02-08 01:57:00,
2013-02-07 21:02:00,39.3,27.4,29.88,SE,138,1.0,3.0,62,0.00,,BKN250,0.04,0.00,VWS V14.01,2013-02-08 02:02:00,
2013-02-07 21:07:00,39.3,27.4,29.88,SSE,157,0.0,7.0,62,0.00,,BKN250,0.04,0.00,VWS V14.01,2013-02-08 02:07:00,
2013-02-07 21:12:00,39.2,27.3,29.88,SSE,150,0.0,6.0,62,0.00,,BKN250,0.04,0.00,VWS V14.01,2013-02-08 02:12:00,
2013-02-07 21:17:00,39.2,27.7,29.87,SE,127,0.0,6.0,63,0.00,,BKN250,0.04,0.00,VWS V14.01,2013-02-08 02:17:00,
2013-02-07 21:22:00,39.1,27.6,29.87,South,178,5.0,6.0,63,0.00,,BKN250,0.04,0.00,VWS V14.01,2013-02-08 02:22:00,
2013-02-07 21:27:00,39.1,27.6,29.87,SSE,150,6.0,6.0,63,0.00,,BKN250,0.04,0.00,VWS V14.01,2013-02-08 02:27:00,
2013-02-07 21:32:00,39.1,27.6,29.86,SSW,202,0.0,5.0,63,0.00,,BKN250,0.04,0.00,VWS V14.01,2013-02-08 02:32:00,
2013-02-07 21:37:00,38.9,27.4,29.86,SSE,150,1.0,5.0,63,0.00,,BKN250,0.04,0.00,VWS V14.01,2013-02-08 02:37:00,
2013-02-07 21:42:00,38.9,27.4,29.86,SSE,160,0.0,0.0,63,0.00,,BKN250,0.04,0.00,VWS V14.01,2013-02-08 02:42:00,
2013-02-07 21:47:00,38.9,27.8,29.86,South,185,2.0,11.0,64,0.00,,BKN250,0.04,0.00,VWS V14.01,2013-02-08 02:47:00,
2013-02-07 21:52:00,38.9,27.8,29.86,SSE,152,0.0,2.0,64,0.00,,BKN250,0.04,0.00,VWS V14.01,2013-02-08 02:52:00,
2013-02-07 21:57:00,38.9,27.8,29.86,SSE,147,0.0,8.0,64,0.00,,BKN250,0.04,0.00,VWS V14.01,2013-02-08 02:57:00,
2013-02-07 22:02:00,38.8,27.7,29.85,SSE,164,0.0,6.0,64,0.00,,BKN250,0.04,0.00,VWS V14.01,2013-02-08 03:02:00,
2013-02-07 22:07:00,38.8,27.7,29.85,ESE,113,1.0,7.0,64,0.00,,BKN250,0.04,0.00,VWS V14.01,2013-02-08 03:07:00,
2013-02-07 22:12:00,38.8,27.7,29.85,SSE,152,2.0,7.0,64,0.00,,BKN250,0.04,0.00,VWS V14.01,2013-02-08 03:12:00,
2013-02-07 22:17:00,38.8,27.7,29.84,SE,143,3.0,8.0,64,0.00,,BKN250,0.04,0.00,VWS V14.01,2013-02-08 03:17:00,
2013-02-07 22:22:00,38.9,27.8,29.84,SE,134,0.0,8.0,64,0.00,,BKN250,0.04,0.00,VWS V14.01,2013-02-08 03:22:00,
2013-02-07 22:27:00,38.8,27.7,29.84,SSE,165,0.0,8.0,64,0.00,,BKN250,0.04,0.00,VWS V14.01,2013-02-08 03:27:00,
2013-02-07 22:32:00,38.8,27.7,29.83,SSW,196,4.0,11.0,64,0.00,,BKN250,0.04,0.00,VWS V14.01,2013-02-08 03:32:00,
2013-02-07 22:37:00,38.8,28.1,29.83,SSE,152,0.0,11.0,65,0.00,,BKN250,0.04,0.00,VWS V14.01,2013-02-08 03:37:00,
2013-02-07 22:42:00,38.8,28.1,29.83,SSE,164,2.0,5.0,65,0.00,,BKN250,0.04,0.00,VWS V14.01,2013-02-08 03:42:00,
2013-02-07 22:47:00,38.6,27.9,29.82,South,182,11.0,12.0,65,0.00,,BKN250,0.04,0.00,VWS V14.01,2013-02-08 03:47:00,
2013-02-07 22:52:00,38.6,27.9,29.82,SE,145,6.0,6.0,65,0.00,,BKN250,0.04,0.00,VWS V14.01,2013-02-08 03:52:00,
2013-02-07 22:57:00,38.6,27.9,29.82,SE,136,0.0,11.0,65,0.00,,BKN250,0.04,0.00,VWS V14.01,2013-02-08 03:57:00,
2013-02-07 23:02:00,38.5,27.8,29.81,South,171,0.0,7.0,65,0.00,,BKN250,0.04,0.00,VWS V14.01,2013-02-08 04:02:00,
2013-02-07 23:07:00,38.5,28.1,29.81,ESE,116,1.0,12.0,66,0.00,,BKN250,0.04,0.00,VWS V14.01,2013-02-08 04:07:00,
2013-02-07 23:12:00,38.5,28.1,29.81,SSE,154,2.0,11.0,66,0.00,,BKN250,0.04,0.00,VWS V14.01,2013-02-08 04:12:00,
2013-02-07 23:17:00,38.5,28.1,29.80,SE,140,0.0,11.0,66,0.00,,BKN250,0.04,0.00,VWS V14.01,2013-02-08 04:17:00,
2013-02-07 23:22:00,38.5,28.1,29.80,ESE,121,0.0,0.0,66,0.00,,BKN250,0.04,0.00,VWS V14.01,2013-02-08 04:22:00,
2013-02-07 23:27:00,38.5,28.1,29.80,SSE,165,0.0,8.0,66,0.00,,BKN250,0.04,0.00,VWS V14.01,2013-02-08 04:27:00,
2013-02-07 23:32:00,38.3,28.3,29.80,SE,144,3.0,7.0,67,0.00,,BKN250,0.04,0.00,VWS V14.01,2013-02-08 04:32:00,
2013-02-07 23:37:00,38.3,28.3,29.80,SSW,199,0.0,11.0,67,0.00,,BKN250,0.04,0.00,VWS V14.01,2013-02-08 04:37:00,
2013-02-07 23:42:00,38.5,28.5,29.80,SE,145,10.0,11.0,67,0.00,,BKN250,0.04,0.00,VWS V14.01,2013-02-08 04:42:00,
2013-02-07 23:46:00,38.8,28.8,29.79,SE,144,5.0,11.0,67,0.00,,BKN250,0.04,0.00,VWS V14.01,2013-02-08 04:46:00,
2013-02-07 23:51:00,38.8,28.8,29.79,SE,131,7.0,7.0,67,0.00,,BKN250,0.04,0.00,VWS V14.01,2013-02-08 04:51:00,
2013-02-07 23:56:00,38.9,28.9,29.79,South,175,0.0,10.0,67,0.00,,BKN250,0.04,0.00,VWS V14.01,2013-02-08 04:56:00,